Theta_e
344 345 345 347 348 351 351 351 351 353 354 355 357 360 362 359 360 360 362 361 359 359 358 357 354 354 356 354 354 356 359 361 360 361 360 361 366 367 365 366 374 370 371 372 370 369 367 365 363 363 360 358 354 351 350 350 348 347 345 346 344 344 344 346 346 345 342 341 344 341 344 345 346 344 343 342 340 339 341 339 340 343 343 344 348
344 344 345 346 348 350 351 351 352 350 353 354 356 359 362 361 359 359 363 362 359 359 359 359 359 356 355 354 354 354 358 357 357 362 361 360 364 370 370 368 370 373 372 369 372 371 367 363 363 364 356 353 352 351 350 350 349 348 349 345 347 343 344 342 344 342 339 338 333 334 338 342 345 342 338 337 337 337 337 340 343 338 337 340 341
343 344 344 345 348 349 351 351 351 351 353 354 357 359 362 361 359 361 362 363 360 360 361 361 360 360 357 356 355 354 356 359 357 359 359 360 364 371 374 373 373 371 370 367 363 364 361 358 357 356 353 352 350 351 350 349 349 347 348 344 343 345 343 345 345 344 337 338 339 333 329 332 340 340 337 336 334 334 335 334 335 335 336 341 342
341 344 343 344 346 349 351 352 352 352 353 354 356 358 360 363 362 362 362 364 363 362 363 364 365 364 363 361 360 359 358 361 361 362 361 359 359 366 372 369 371 366 370 366 362 360 358 356 355 355 354 354 351 349 348 348 348 348 346 346 344 337 337 341 345 346 341 339 332 334 330 326 330 333 335 335 334 333 332 332 333 335 336 339 339
342 343 345 345 346 347 351 354 354 352 353 354 355 357 360 362 363 364 364 364 366 366 365 366 365 364 364 363 362 362 361 359 359 357 358 360 358 360 361 364 365 364 362 362 359 358 358 357 355 355 354 353 351 348 344 343 345 347 348 348 346 339 336 338 343 344 344 343 337 333 329 327 327 330 326 334 336 333 330 331 333 333 334 337 337
344 343 344 346 346 347 351 354 354 354 354 357 357 358 361 362 365 365 366 366 365 366 368 367 364 362 361 360 356 355 355 356 354 355 355 355 353 353 360 361 361 362 362 360 359 357 358 357 356 354 354 352 350 346 346 346 345 347 348 347 344 345 344 336 335 344 342 344 345 341 335 334 332 333 326 331 337 331 334 331 332 331 334 335 337
344 345 346 346 348 347 348 352 354 354 357 358 359 360 362 363 365 366 366 366 367 367 369 368 365 364 363 361 358 357 356 357 360 358 355 353 355 354 355 359 361 360 358 359 358 358 358 358 357 354 353 353 351 348 345 342 344 346 347 346 346 347 343 339 333 336 342 344 344 341 342 342 337 334 330 331 327 332 333 329 329 331 330 331 333
341 345 347 348 349 348 348 350 354 354 357 358 359 360 362 363 365 366 367 366 367 368 368 369 366 365 364 362 359 357 355 356 359 360 358 357 355 355 356 356 361 361 358 360 359 359 358 358 358 355 353 351 347 347 345 344 348 347 348 348 348 347 346 342 339 338 335 340 342 341 341 339 338 336 335 332 329 325 329 325 327 329 330 330 329
341 343 346 348 348 349 349 350 354 355 356 357 359 360 362 363 366 367 366 367 367 368 367 368 369 366 365 363 359 359 359 357 355 357 356 358 356 357 359 357 360 361 359 358 359 358 358 357 358 356 354 351 348 346 344 344 345 347 348 348 347 347 347 345 343 342 340 337 337 340 338 338 337 335 336 336 328 326 324 325 327 329 331 331 332
342 343 348 349 349 351 351 351 353 354 355 360 360 360 361 364 366 367 366 367 367 368 368 369 369 366 364 363 361 361 361 359 356 355 357 358 357 358 359 359 357 358 360 359 360 358 358 358 356 355 353 347 344 343 344 345 346 347 347 347 347 346 347 345 344 343 342 341 340 340 338 336 334 333 333 332 333 330 323 322 324 326 329 339 334
342 343 347 350 350 350 352 350 352 354 355 357 358 359 361 363 365 366 368 367 368 368 369 368 369 366 364 364 362 362 362 361 357 356 358 359 359 358 358 359 358 358 356 358 358 359 358 358 354 350 348 348 345 345 347 344 342 343 345 347 347 345 346 345 343 343 343 343 341 339 339 336 332 331 332 332 332 329 329 326 326 326 326 326 332
343 342 344 348 350 350 351 351 351 353 354 354 356 357 359 362 365 366 367 368 367 367 368 367 366 366 365 365 364 364 364 360 358 357 358 358 358 357 358 359 358 357 358 354 355 354 357 354 352 349 349 348 346 346 346 344 344 343 345 347 346 346 347 345 345 342 342 343 339 338 336 337 336 334 333 335 334 331 331 330 329 332 332 331 332
343 343 344 346 348 348 348 351 353 354 353 354 355 355 358 361 364 366 367 368 367 368 368 368 366 365 364 364 365 366 364 363 361 359 360 358 358 358 358 357 358 356 355 353 351 354 355 353 350 349 350 348 350 348 346 347 346 344 345 345 345 345 344 346 342 341 341 340 336 337 335 337 335 338 335 334 334 335 335 331 331 330 328 329 333
342 343 343 346 349 349 350 351 352 353 353 352 354 356 359 359 363 365 366 369 368 367 368 368 367 366 366 365 365 365 365 364 361 359 360 360 360 360 357 356 357 355 354 354 351 354 355 353 352 351 352 351 349 350 349 348 347 345 346 344 343 344 345 344 344 341 342 341 339 336 338 336 335 337 337 336 334 334 332 331 331 331 331 328 333
343 344 343 344 347 350 349 351 352 352 353 352 353 356 359 360 362 365 367 369 368 368 368 369 367 366 366 367 366 367 364 363 362 361 361 360 360 360 360 357 356 356 354 355 356 354 352 353 353 351 350 351 349 350 348 347 347 347 346 345 345 343 344 344 343 340 340 339 340 340 339 335 335 338 335 335 337 335 334 333 332 328 326 327 329
340 342 345 345 348 350 350 351 352 353 355 353 353 356 358 360 363 366 367 369 370 370 369 369 368 368 368 368 367 367 367 365 364 364 363 362 362 361 360 360 358 357 357 357 353 353 354 352 353 351 351 349 350 350 348 345 346 344 345 345 343 343 343 343 343 342 339 340 340 342 341 337 340 338 339 337 338 339 338 337 335 332 327 323 328
337 339 345 347 346 350 350 352 352 353 354 354 357 358 360 360 362 366 368 370 369 371 371 370 370 369 369 368 368 367 365 364 362 363 361 363 363 362 359 358 359 359 358 358 356 355 354 353 352 349 349 350 350 349 346 346 346 345 344 345 343 341 344 342 342 341 343 336 338 339 339 340 340 342 340 340 341 342 342 340 338 335 332 328 326
338 343 348 348 347 348 350 351 352 353 355 357 360 360 361 361 364 366 368 369 370 371 371 371 370 369 370 369 370 369 366 365 364 363 364 362 363 363 360 357 357 358 357 357 355 353 354 352 351 348 348 349 348 347 347 347 347 345 345 345 344 344 342 343 344 343 343 343 341 339 338 337 340 340 339 339 342 342 340 340 340 340 340 332 330
341 342 346 347 346 347 350 349 350 354 359 360 359 360 360 362 365 365 367 367 369 369 371 371 371 369 369 370 370 370 368 366 366 366 365 364 361 360 360 357 358 360 360 358 355 353 352 350 350 347 349 348 347 347 347 346 346 345 344 342 344 346 343 342 344 343 342 342 341 339 340 339 340 339 340 339 340 340 339 338 338 339 338 339 336
340 344 345 347 347 347 349 349 350 353 358 358 358 359 359 360 364 364 365 368 369 368 370 370 370 369 368 371 372 373 371 368 367 366 364 363 363 360 360 355 359 359 358 356 353 352 350 347 345 345 346 347 347 346 346 345 346 346 343 341 341 342 340 341 341 341 340 340 339 338 340 340 340 339 340 339 339 340 339 338 338 337 338 338 339
340 343 346 347 348 349 349 350 350 352 356 356 357 358 358 358 360 360 362 363 364 364 367 370 370 369 370 370 370 372 371 368 367 366 365 365 366 364 361 358 361 359 358 354 352 351 351 348 344 346 346 347 348 346 346 345 347 346 346 345 344 344 341 340 342 341 339 339 340 339 340 341 342 340 339 338 337 338 339 337 337 337 335 337 335
343 341 344 347 349 350 351 351 349 349 352 354 355 356 354 355 357 357 357 360 357 361 365 370 370 368 369 369 370 371 371 370 367 367 366 366 365 364 364 362 361 360 357 353 352 350 350 348 346 346 348 347 348 348 344 345 344 344 344 342 342 343 342 341 342 340 340 339 340 340 340 340 341 340 338 338 337 335 335 334 334 334 334 335 337
342 342 340 343 350 351 351 353 351 348 351 353 352 350 349 351 353 355 353 356 355 356 362 370 370 369 369 369 369 371 371 370 367 365 364 363 364 364 364 361 360 357 356 354 352 349 349 349 347 347 348 348 349 347 346 345 344 343 344 342 342 343 341 340 339 339 339 340 339 340 339 339 339 338 338 338 337 337 336 336 336 337 336 335 337
344 341 336 341 348 353 355 355 355 353 354 353 351 348 347 348 349 352 351 352 353 353 358 367 369 367 369 370 370 370 369 368 366 365 362 361 360 361 362 361 360 356 354 355 353 349 349 349 346 348 348 347 347 346 346 346 344 343 343 345 346 343 341 340 339 340 339 339 339 339 338 338 339 337 337 337 337 337 337 338 337 338 338 337 338
344 344 344 346 346 352 357 358 360 358 350 355 351 346 345 347 348 349 351 350 352 353 356 364 366 365 367 368 369 368 368 368 365 362 361 359 356 359 361 360 358 355 355 353 352 350 349 348 346 348 346 345 345 346 346 344 343 342 343 343 344 343 341 341 340 340 340 340 340 339 338 339 338 336 336 335 336 336 336 336 336 337 337 336 336
349 348 344 344 352 358 362 364 364 357 351 359 357 347 344 347 349 350 350 351 351 351 353 360 365 364 366 367 368 368 368 366 363 361 360 358 355 360 360 359 357 354 355 352 351 347 348 350 350 347 345 348 347 347 346 343 340 341 343 343 343 342 341 341 340 339 340 340 340 340 339 339 338 336 335 335 337 335 335 335 335 337 337 338 338
348 348 346 354 360 359 360 363 358 354 354 355 353 350 346 353 351 349 349 352 353 353 355 357 364 363 365 366 368 368 367 366 365 362 361 359 356 357 357 357 356 354 353 352 348 348 349 351 348 342 344 348 345 346 344 343 342 343 344 343 341 341 340 341 340 339 339 340 339 339 339 339 338 337 336 335 335 335 335 336 337 337 338 338 336
349 348 348 350 355 357 358 359 358 355 356 356 355 354 351 353 351 350 349 350 353 355 354 355 362 365 366 367 369 370 370 369 365 365 364 361 358 355 355 357 357 353 350 350 347 347 350 351 346 344 349 350 347 342 342 344 343 342 342 342 343 341 339 340 340 340 340 338 338 338 336 337 337 338 337 337 336 335 337 336 340 341 340 337 334
347 348 351 352 350 356 357 356 357 357 357 357 356 356 358 357 355 355 349 349 355 357 357 356 361 366 368 371 373 372 370 369 366 366 363 362 361 359 356 355 358 355 351 349 350 350 351 350 350 349 350 347 343 340 343 343 342 342 342 342 343 343 340 340 340 340 341 340 339 338 337 337 340 342 343 343 341 343 342 339 337 336 336 336 335
347 349 349 353 354 356 359 359 361 358 358 356 357 359 356 356 356 354 354 351 356 360 363 360 361 367 370 372 372 372 371 370 367 365 365 364 360 358 355 356 356 355 353 351 353 352 349 346 345 346 345 341 341 343 336 328 334 342 343 342 343 342 342 341 341 340 340 339 339 338 339 342 345 341 345 345 341 339 339 338 339 337 336 337 336
334 354 351 354 356 358 360 360 360 358 358 358 359 359 358 356 356 356 356 353 354 364 362 363 367 370 372 373 372 370 369 368 366 365 365 364 362 360 360 361 358 355 353 353 351 347 347 346 348 347 342 340 339 337 328 326 328 333 342 343 341 341 342 342 341 341 340 340 340 340 341 339 345 341 343 343 342 339 337 334 332 332 334 337 333
328 332 350 355 356 359 360 359 358 357 359 360 361 359 357 355 357 356 356 355 357 361 362 368 368 371 372 371 370 369 368 367 366 365 364 363 362 361 359 357 355 353 352 352 347 350 349 346 344 341 339 339 339 329 325 325 327 328 334 344 341 341 341 342 342 340 340 340 339 338 338 343 343 346 345 344 342 337 333 332 332 331 330 329 328
339 339 350 354 355 357 362 360 359 357 359 360 361 358 358 358 360 360 360 356 357 361 367 368 369 371 372 371 370 368 368 365 364 363 363 363 362 360 359 357 355 354 353 352 351 348 344 343 342 339 336 337 337 327 323 324 326 326 328 335 341 341 340 339 339 339 339 339 341 346 346 343 345 341 341 343 343 343 339 332 331 331 330 327 325
326 330 345 356 357 357 361 362 361 360 360 361 364 360 360 359 360 361 359 361 364 365 367 368 370 371 371 370 368 368 367 365 363 362 361 359 359 358 357 356 355 355 355 353 350 347 345 344 341 341 338 337 337 326 322 322 323 324 326 331 340 339 339 339 339 338 337 339 345 340 342 344 344 343 342 342 341 342 342 342 340 337 336 335 328
329 335 331 354 360 359 363 363 360 358 360 361 361 361 362 358 360 359 363 367 364 365 368 370 370 370 371 369 367 367 366 364 363 360 358 357 357 358 357 355 353 352 353 350 348 346 344 342 339 337 336 336 337 325 321 321 321 321 323 328 340 341 341 340 340 339 339 339 341 340 343 345 343 341 342 342 342 342 341 336 334 332 331 334 335
327 342 353 361 355 358 360 362 361 358 359 359 360 359 359 356 359 361 361 362 365 366 368 370 369 369 369 369 367 366 366 364 360 358 357 356 356 357 356 355 353 352 352 349 347 345 342 341 340 339 338 339 338 321 320 320 319 319 323 336 340 343 342 340 340 340 340 344 346 341 340 341 342 342 342 336 339 340 340 335 333 332 332 332 332
330 335 338 354 362 361 361 364 359 358 359 358 359 359 357 356 359 360 363 361 363 366 368 370 369 369 369 369 367 365 364 362 359 357 356 355 355 355 354 355 353 350 348 346 346 342 343 341 340 340 339 339 338 326 318 317 318 318 323 339 341 342 343 342 341 343 344 347 345 344 344 342 340 340 336 327 328 333 336 335 332 331 330 330 330
325 341 338 355 361 360 361 360 358 356 358 360 360 359 358 359 360 361 362 362 363 364 368 370 370 371 370 370 368 366 364 361 360 358 356 353 354 353 352 354 351 349 347 346 344 342 342 342 340 339 338 338 338 332 315 315 315 316 327 340 342 342 343 344 344 344 346 345 343 342 342 340 340 340 323 320 322 331 333 333 330 328 327 328 328
328 335 345 358 360 359 360 361 358 356 359 361 360 360 359 359 361 360 361 362 363 365 368 369 370 371 370 369 368 366 365 362 360 358 354 353 353 353 352 352 349 349 348 349 346 344 341 339 337 335 337 336 337 330 313 314 314 314 329 342 343 342 343 342 341 342 343 343 344 341 338 338 337 335 315 317 318 328 332 331 329 327 326 326 328
333 344 357 360 363 362 360 355 355 359 361 364 359 361 360 359 358 360 360 361 363 366 368 371 371 371 370 368 366 365 364 363 360 358 355 354 354 351 350 348 348 347 346 345 344 342 340 337 336 336 335 336 337 339 326 313 312 313 319 344 345 341 337 341 342 341 341 341 338 337 336 326 322 315 312 311 313 315 329 329 328 326 325 325 330
336 346 355 357 356 357 356 354 358 364 360 362 359 357 359 360 361 361 360 361 365 368 370 371 370 368 367 366 365 365 363 363 361 358 354 352 351 349 348 347 345 345 344 343 340 339 338 336 335 335 334 332 334 336 337 311 310 311 316 326 344 342 340 337 343 341 337 333 333 334 336 325 314 311 308 307 307 309 315 326 327 327 327 321 319
344 352 354 355 351 357 356 355 361 361 359 356 361 361 360 360 359 359 362 363 368 370 370 369 368 367 365 363 363 363 363 360 360 358 355 352 352 351 348 346 344 343 342 340 340 338 338 336 336 336 337 337 338 337 340 315 312 310 313 317 339 341 343 343 342 339 336 334 335 338 339 321 311 309 307 303 304 307 310 320 326 305 305 311 324
352 352 354 352 353 352 352 354 353 352 355 358 362 362 361 361 361 363 365 368 369 369 368 367 366 364 362 361 361 361 359 359 355 355 354 351 352 350 350 347 345 342 340 338 337 338 339 339 338 341 342 342 344 337 324 325 310 310 312 315 320 336 325 343 339 335 333 334 334 334 333 311 308 304 302 302 302 304 308 317 309 306 308 308 318
350 350 350 349 349 350 352 355 354 360 364 366 366 363 363 364 365 368 368 368 368 368 367 364 363 362 360 359 358 358 360 358 356 353 351 351 349 349 347 345 343 341 338 338 338 339 338 337 337 340 341 342 341 337 324 321 318 311 308 310 314 319 321 336 337 334 334 334 336 336 322 305 301 297 299 302 305 306 316 302 303 306 309 315 321
348 348 355 355 356 357 355 359 360 364 364 365 366 364 363 362 363 364 363 364 364 364 362 360 359 359 358 357 356 356 356 355 353 352 352 350 349 347 344 343 342 339 338 338 339 340 339 339 338 338 338 339 341 337 334 324 318 312 310 309 312 314 315 317 333 334 335 324 312 304 300 301 301 300 301 303 305 305 304 305 305 305 315 322 322
350 351 352 352 353 355 355 354 355 356 359 361 364 364 361 360 362 361 362 362 360 358 356 355 355 355 354 354 352 352 353 353 352 351 351 350 347 344 342 341 340 339 339 338 339 339 339 339 339 339 337 336 337 336 331 325 321 317 317 313 312 313 315 318 325 328 313 308 306 304 303 302 304 307 316 320 323 324 311 310 311 313 322 320 319
347 349 350 349 348 347 347 349 350 353 354 355 359 360 361 361 360 359 360 360 357 354 352 352 353 353 353 353 351 349 349 349 350 349 348 347 345 343 341 339 340 339 340 340 340 339 338 337 337 338 337 336 336 335 332 329 329 328 329 323 320 319 315 316 321 318 314 316 314 317 318 315 315 313 316 316 319 320 320 318 321 322 322 321 320
346 345 344 343 342 343 344 345 346 349 352 353 353 355 357 357 355 355 355 355 353 353 352 353 352 351 349 349 349 349 348 347 346 344 343 344 343 341 339 339 340 340 340 339 339 338 337 339 337 336 337 336 334 335 333 330 329 330 329 326 325 324 321 322 324 325 326 324 323 316 316 325 323 323 323 324 324 324 323 322 323 321 320 321 321
349 348 349 349 349 347 347 345 345 346 346 345 345 346 348 350 352 355 357 355 352 350 353 351 349 348 346 347 347 345 345 344 343 336 326 321 329 343 341 338 325 326 332 341 341 338 339 338 338 336 334 334 335 334 336 324 339 320 326 325 325 324 324 325 324 319 328 327 326 325 327 325 325 322 322 322 321 321 321 322 322 320 319 318 319
349 350 352 352 352 351 349 348 348 348 347 347 347 348 350 350 352 354 356 355 353 352 351 347 346 345 345 344 343 342 343 342 341 337 328 320 305 298 308 334 327 312 304 300 309 335 335 338 338 339 341 336 334 334 311 305 306 307 305 304 304 308 313 322 313 315 327 329 327 325 324 323 323 323 322 321 320 319 320 319 319 317 317 317 317
342 343 345 347 348 349 348 347 347 347 346 345 346 346 349 349 352 355 354 354 353 350 347 345 344 342 341 343 341 342 342 343 341 339 338 334 329 318 297 295 304 305 299 296 296 297 301 311 337 333 318 304 306 303 301 302 298 295 295 296 297 297 299 302 308 326 326 324 323 322 322 322 322 322 321 320 319 318 316 316 316 316 316 316 316
Wind_Speed
16 18 19 19 19 16 15 14 15 16 15 15 15 15 14 13 13 13 12 12 10 10 10 10 9 9 9 10 9 9 8 8 8 7 7 6 4 5 9 5 5 7 8 6 6 5 4 3 5 5 4 3 5 2 0 3 2 1 2 2 3 3 4 2 3 3 4 4 2 3 3 2 4 1 3 2 2 3 3 3 3 3 4 3 3
17 17 19 19 17 18 17 14 16 17 16 16 17 16 15 15 14 13 12 12 12 11 10 10 9 9 9 9 9 9 8 8 8 7 7 6 6 6 6 9 8 6 6 5 5 5 3 2 3 2 3 4 0 1 2 0 1 2 1 2 3 2 2 4 3 3 3 4 2 2 3 2 2 3 5 2 5 3 2 4 2 4 5 4 4
16 17 19 18 21 20 17 16 16 18 18 17 17 16 16 15 13 13 12 12 12 12 10 10 10 9 9 8 8 7 7 7 7 6 7 8 7 7 6 5 6 6 5 4 4 3 3 2 3 3 4 3 3 2 1 1 2 1 2 3 2 3 3 1 1 3 6 2 1 2 3 4 2 6 3 3 4 4 2 3 4 5 5 4 3
18 18 20 20 20 19 18 17 16 17 16 16 17 18 15 14 14 13 12 12 11 12 11 11 11 10 9 8 8 7 6 6 7 7 7 7 7 7 6 6 6 5 5 4 4 3 4 4 4 5 3 3 1 0 1 1 2 2 3 3 2 5 6 6 2 1 5 3 1 4 3 4 4 3 4 1 1 4 3 5 3 2 4 4 4
18 19 19 19 20 21 20 18 17 17 17 17 17 16 13 16 15 15 13 13 11 12 13 11 10 10 8 8 8 7 6 6 6 6 6 6 7 7 7 7 7 6 6 6 4 4 4 4 5 4 4 3 2 2 2 4 3 4 3 2 3 4 4 1 3 3 2 2 4 3 4 5 2 3 1 1 5 5 5 6 5 2 3 2 2
18 19 19 20 20 20 20 20 19 17 17 17 17 17 16 15 15 15 12 12 12 13 13 11 10 9 9 9 9 8 8 8 8 8 7 7 8 8 9 8 7 6 5 5 5 5 5 5 5 4 4 3 2 2 1 2 3 4 5 4 3 1 4 3 1 3 1 0 1 0 2 2 2 2 2 1 4 5 4 3 0 1 3 2 0
19 19 19 21 21 21 21 21 20 19 18 17 17 17 17 15 15 15 13 12 12 12 14 11 11 10 11 10 9 9 8 8 7 7 7 6 6 5 5 6 6 6 6 6 5 6 6 5 5 4 3 3 3 2 3 4 5 4 1 3 0 2 2 3 2 2 4 1 2 1 1 1 2 3 3 2 2 3 6 3 8 6 1 3 5
18 20 20 20 20 21 22 22 20 19 18 18 17 16 17 16 16 16 13 12 12 12 13 12 11 11 11 10 9 9 9 8 8 7 6 4 5 5 4 5 6 5 5 6 5 6 5 6 5 4 4 4 3 3 3 5 4 1 1 2 1 1 1 3 3 3 2 3 1 1 4 2 3 2 3 4 3 3 4 2 7 6 3 1 6
20 19 21 21 21 21 20 21 21 20 18 18 17 16 16 16 16 16 15 13 12 14 13 13 11 10 10 10 10 8 9 8 7 7 6 6 6 5 4 5 5 5 4 6 6 6 5 5 5 5 4 4 3 4 4 4 2 2 2 1 2 2 1 1 2 2 5 1 2 0 2 2 2 2 2 2 4 3 4 1 3 3 4 2 5
20 21 21 21 20 20 21 20 21 19 18 17 17 16 16 16 16 17 16 13 13 14 14 14 14 11 11 11 12 10 8 7 7 6 6 6 6 6 5 5 6 6 5 5 6 6 5 5 5 5 5 4 3 4 3 2 3 3 3 4 3 3 1 2 2 1 2 2 0 2 1 1 1 2 4 4 2 1 4 4 5 7 3 2 1
19 20 21 21 20 19 20 21 20 20 17 18 18 17 16 16 17 18 17 14 14 15 15 15 14 12 11 12 13 12 10 9 8 8 7 7 7 7 7 6 5 5 5 5 6 6 6 5 6 7 5 3 3 2 2 3 5 5 4 3 3 3 3 3 2 1 2 1 1 1 1 4 1 4 5 5 3 3 3 5 7 7 8 7 3
19 19 20 20 19 20 19 20 20 20 19 19 18 17 17 16 17 18 17 17 15 15 16 15 14 14 13 13 13 11 11 9 9 9 9 9 8 7 7 6 6 5 5 5 6 7 6 7 7 5 4 4 4 4 4 4 4 5 3 4 4 3 3 2 2 2 3 3 4 4 4 4 3 2 4 3 1 4 5 6 5 5 6 5 5
18 18 18 19 19 20 21 20 20 20 19 20 20 19 17 17 18 19 18 18 16 15 16 16 15 14 13 13 12 11 11 11 10 10 9 9 8 8 7 7 6 6 6 7 8 8 7 7 6 4 4 4 4 5 4 2 3 1 4 4 4 4 3 3 3 4 3 2 4 2 2 4 3 1 2 5 3 1 1 5 5 6 6 6 5
17 18 19 19 19 20 20 20 20 19 21 21 20 18 17 17 18 19 18 18 16 16 16 16 16 14 14 13 12 11 11 11 10 10 9 8 8 8 8 8 7 8 8 7 7 9 8 8 7 6 5 6 5 4 4 4 3 3 3 4 4 3 2 3 3 3 3 3 3 2 3 4 4 3 4 4 5 4 5 6 5 5 6 7 5
14 16 20 20 22 22 21 21 20 20 22 22 20 18 17 17 18 19 18 18 18 17 15 16 15 15 14 13 12 11 11 11 10 9 9 9 9 9 8 8 8 8 7 7 7 7 8 7 7 7 7 6 6 5 5 4 4 4 3 3 4 4 4 3 3 3 3 3 3 3 3 4 3 3 4 6 5 5 5 5 5 6 7 7 7
18 21 21 22 22 22 21 20 21 20 22 21 21 19 19 18 18 19 19 19 18 17 16 16 15 14 15 15 14 13 10 10 10 9 9 9 9 9 8 8 7 7 7 7 8 7 7 7 8 8 7 7 7 6 6 5 5 4 4 4 4 4 4 5 4 4 4 4 4 4 4 5 5 5 4 4 4 3 4 5 5 5 6 8 6
19 22 21 21 21 22 21 22 21 21 22 22 20 20 20 19 19 20 20 18 19 18 17 16 15 15 16 15 14 14 14 13 12 12 12 10 9 9 9 9 8 7 7 7 7 7 7 8 8 8 8 8 8 7 6 5 6 5 5 5 5 5 4 4 5 5 5 5 5 6 5 3 3 4 4 4 4 4 4 5 4 5 5 6 7
21 21 20 22 22 24 23 22 24 24 24 23 21 21 19 19 20 20 20 20 19 18 18 16 16 16 15 16 15 15 14 14 13 12 12 10 10 9 9 9 9 8 7 8 8 9 8 8 7 7 8 8 8 8 7 6 6 5 5 5 6 6 5 4 5 5 5 4 5 5 4 5 4 4 4 4 3 3 4 4 4 5 4 6 6
17 21 19 20 21 22 23 24 25 23 22 22 21 21 20 19 20 21 21 21 20 17 17 15 16 13 13 15 16 15 14 13 13 12 11 11 12 11 11 9 9 9 9 9 9 10 9 9 8 8 8 9 8 8 8 7 7 6 6 6 6 5 5 5 5 5 5 5 5 6 4 4 5 5 4 4 4 5 5 4 4 4 5 6 6
17 19 19 20 22 24 26 25 25 24 23 22 23 21 23 21 20 20 19 18 18 18 16 16 16 15 14 14 15 14 14 13 13 12 12 12 12 12 12 11 10 10 10 11 10 11 11 12 11 11 10 10 10 9 9 9 8 7 7 7 7 7 7 6 6 6 5 5 6 6 5 5 5 5 4 4 5 5 5 4 4 4 5 5 5
16 17 19 21 22 23 24 24 23 23 22 21 22 23 22 21 21 22 21 21 21 19 18 16 15 16 16 16 16 15 16 14 14 14 13 13 12 11 11 10 10 10 11 12 11 11 11 11 12 11 12 11 11 11 11 9 8 7 6 7 6 4 6 6 5 6 6 6 6 6 6 6 6 5 4 5 6 6 5 4 3 4 5 4 5
16 16 17 18 20 21 22 21 20 21 22 24 22 22 22 22 21 21 21 20 21 20 18 17 16 15 17 16 17 16 15 14 15 14 14 13 12 11 11 10 12 12 13 14 13 12 12 13 12 12 11 11 12 12 11 10 10 8 7 7 6 5 5 6 5 6 6 6 6 7 7 7 6 6 6 6 6 6 5 4 4 4 5 5 4
15 15 15 17 19 19 19 21 22 23 22 23 22 22 22 23 22 20 21 22 21 20 18 16 16 16 17 16 16 15 15 16 17 15 16 15 13 12 12 14 14 14 13 14 15 14 13 13 12 12 12 11 10 10 10 10 9 9 8 8 8 7 7 7 8 8 8 7 8 7 8 7 6 6 6 6 6 6 5 5 5 5 5 6 6
14 12 14 14 16 17 15 18 18 17 18 22 21 21 21 21 21 21 23 23 22 20 19 18 17 17 18 17 16 15 17 18 17 15 16 16 14 14 15 15 15 13 14 14 15 15 14 14 14 13 12 11 11 11 11 11 12 11 9 8 6 6 7 8 8 8 8 8 8 8 7 7 7 7 6 6 5 5 5 5 6 5 5 6 6
12 13 13 13 15 17 14 15 15 15 19 19 20 20 21 20 21 21 21 22 20 19 19 19 19 20 19 17 18 17 17 18 18 16 18 18 18 17 15 16 15 15 15 15 14 14 14 15 14 14 13 13 13 12 12 12 11 10 10 9 7 8 9 9 8 8 8 8 8 8 7 7 7 8 7 6 6 7 6 6 6 6 6 6 6
11 11 12 14 12 11 11 13 13 17 19 16 16 20 21 20 22 20 20 19 20 19 20 19 19 19 18 20 19 17 18 19 19 18 19 20 18 16 15 15 16 16 16 16 16 14 14 15 15 14 14 14 12 12 11 11 12 10 9 9 9 9 9 9 9 10 9 9 8 8 8 8 8 8 7 7 6 7 6 6 7 7 6 6 7
13 11 10 9 10 13 15 14 16 20 18 17 19 19 20 17 20 21 19 18 18 18 17 19 19 19 18 19 19 18 18 19 17 16 16 17 17 17 17 17 17 17 17 16 16 16 14 15 15 15 15 15 14 13 11 11 11 11 10 10 11 11 10 9 9 10 10 9 9 8 8 8 8 8 9 8 7 7 6 7 7 7 7 6 7
11 13 14 14 12 12 14 16 17 18 18 17 18 18 18 18 20 20 19 18 16 16 17 17 18 17 17 18 17 18 18 17 15 15 17 17 17 16 15 14 15 17 17 17 17 17 15 15 15 15 15 14 13 13 12 11 10 11 11 11 11 10 10 10 9 9 10 9 9 9 10 9 8 9 9 8 7 7 6 8 6 6 6 7 8
15 15 14 14 15 14 16 17 17 19 19 19 18 17 15 15 17 17 19 19 16 16 17 17 16 16 15 16 15 14 13 14 16 17 17 17 16 15 14 14 15 16 14 16 17 18 17 16 15 15 15 13 12 13 11 11 10 11 12 12 12 11 10 9 9 10 9 9 8 8 8 10 8 7 9 8 7 2 3 5 6 8 8 8 8
12 14 15 14 15 15 16 17 17 19 19 19 17 16 18 18 17 18 16 17 14 16 15 16 16 14 14 14 14 13 13 14 15 16 15 15 16 16 16 16 16 17 14 14 15 16 17 17 16 16 15 13 11 10 12 14 12 11 12 11 10 10 10 9 9 9 9 9 9 9 9 8 9 5 3 4 2 2 4 6 7 8 8 8 7
12 12 14 14 15 15 16 18 19 19 20 18 17 17 17 19 18 19 17 17 17 15 16 15 14 14 13 13 13 13 13 15 15 15 14 14 14 14 12 11 13 14 13 12 14 15 15 15 16 15 16 13 12 11 15 14 15 14 12 12 11 10 10 9 9 8 8 8 8 9 8 6 5 5 2 3 2 4 7 10 12 12 9 7 8
12 10 13 15 17 17 18 20 21 21 20 19 17 18 18 18 18 18 18 17 16 16 16 14 14 14 13 14 13 13 13 14 14 14 14 13 12 11 10 10 10 12 11 12 13 14 14 13 13 14 15 14 13 13 14 15 15 15 12 11 11 10 10 9 9 8 8 7 7 7 8 3 3 3 2 3 4 6 10 13 12 12 12 11 9
8 10 12 15 17 19 20 21 21 20 20 21 19 19 18 17 16 15 15 17 17 17 15 14 14 14 14 13 13 14 14 13 14 13 12 12 11 10 10 11 12 12 11 11 12 13 13 13 13 15 15 13 12 13 14 15 16 15 14 11 9 9 9 9 8 8 7 7 2 3 2 2 2 6 4 6 6 7 9 9 11 14 11 11 12
16 11 13 16 15 15 17 20 20 20 20 18 18 17 16 16 16 15 16 14 14 15 15 15 14 14 14 13 14 14 14 13 12 11 11 12 12 12 12 11 11 11 11 11 12 12 11 12 11 12 11 11 12 11 15 15 16 16 15 12 11 10 9 8 8 7 6 4 8 1 3 2 2 3 5 7 8 8 6 4 4 4 6 10 13
15 12 14 13 14 15 16 17 19 19 18 17 17 16 16 16 16 16 14 13 14 15 14 14 14 13 13 13 14 14 14 13 12 12 10 11 12 11 11 10 10 11 10 10 12 12 11 11 12 11 11 11 11 15 18 18 17 17 17 13 11 10 9 8 8 7 6 6 8 4 6 6 5 5 7 6 7 7 4 3 3 5 8 12 13
18 6 2 8 14 17 19 19 17 18 18 18 17 17 17 17 16 16 15 14 14 14 14 13 13 13 13 13 14 13 13 13 13 12 12 13 12 11 11 10 9 9 9 10 10 11 11 12 12 12 11 11 11 15 18 18 17 16 15 9 10 9 9 9 8 7 7 5 7 9 8 9 7 8 6 7 8 7 6 5 5 8 11 12 11
17 14 14 11 14 16 15 15 16 18 19 18 17 17 17 17 17 16 15 15 15 14 14 14 13 14 14 13 13 14 14 14 13 13 12 11 9 10 11 10 10 9 10 11 11 12 12 12 13 12 12 10 9 12 18 19 18 17 12 10 10 9 9 9 7 6 5 4 5 6 7 7 7 7 8 9 7 5 6 7 8 8 8 10 9
21 14 13 14 16 15 16 18 19 19 19 17 18 17 16 16 16 16 16 15 15 14 13 13 13 13 13 13 13 13 13 13 13 13 11 10 10 9 9 9 11 11 10 10 11 11 11 11 12 12 11 9 8 10 16 17 16 17 15 11 9 9 9 7 7 6 6 6 6 10 8 6 5 5 6 7 6 4 4 5 6 8 9 9 9
14 11 17 19 17 16 18 18 18 19 19 18 19 19 17 16 15 16 16 15 15 14 13 13 12 12 12 12 12 12 12 12 12 12 11 10 10 9 8 9 10 10 10 9 10 10 10 10 12 12 11 12 10 9 15 15 17 18 14 9 9 9 8 7 6 6 6 5 5 6 6 6 6 4 9 8 7 5 5 5 6 7 8 9 9
11 13 14 15 15 14 16 18 20 18 19 18 18 17 16 15 16 15 15 14 14 13 12 12 11 12 12 11 11 11 11 12 12 11 10 9 9 9 9 9 9 8 9 10 9 9 9 8 8 8 8 8 9 6 14 17 17 18 18 9 8 8 8 8 7 6 6 5 4 4 7 11 9 10 11 9 7 6 4 4 5 6 8 9 7
13 13 14 13 14 15 17 18 15 15 17 17 16 16 16 14 13 13 14 13 12 12 12 12 11 12 12 11 10 11 11 11 11 10 10 10 9 9 9 8 8 7 6 6 8 10 10 9 10 9 9 11 8 10 10 17 16 17 17 8 7 6 6 7 6 5 4 5 5 5 5 9 12 10 10 9 6 5 2 3 5 5 3 3 6
9 12 13 13 13 14 14 16 14 15 15 15 14 14 14 14 13 13 13 12 12 12 11 11 11 11 11 10 10 10 10 9 9 9 9 8 9 9 9 10 8 6 5 7 8 9 9 9 10 10 10 10 11 15 9 13 16 12 10 9 7 7 5 7 6 6 6 5 5 4 5 7 12 11 9 8 6 5 4 3 0 5 1 4 4
13 14 13 14 13 15 16 16 16 17 14 14 17 17 15 14 14 13 12 13 12 12 12 11 11 10 10 10 9 11 9 8 9 9 10 10 8 9 9 9 7 6 7 9 9 9 9 9 8 7 6 5 5 7 15 9 8 13 17 17 9 5 8 8 8 7 7 5 5 5 5 12 11 11 9 8 7 4 4 3 1 3 2 4 6
11 12 13 15 14 14 15 16 15 14 15 15 16 16 15 16 15 12 12 12 11 11 11 10 10 10 9 9 9 9 9 9 10 10 10 10 9 8 7 8 8 7 9 9 9 9 8 9 9 7 6 6 6 6 9 13 13 16 11 9 7 10 9 4 5 5 6 7 7 5 7 12 11 10 9 6 4 3 1 6 3 1 3 4 5
12 13 14 15 16 18 17 17 16 17 15 14 15 17 18 16 13 12 12 11 11 11 10 10 9 9 9 9 10 8 8 8 9 8 9 9 9 9 8 8 8 8 8 7 8 8 9 9 9 8 7 6 7 7 6 9 12 8 11 9 7 10 8 5 6 6 3 4 9 14 14 11 9 7 7 3 3 5 7 8 5 3 5 5 5
14 15 15 16 18 18 18 18 16 16 14 13 14 15 16 15 13 12 12 12 12 11 10 9 8 7 7 8 9 10 9 8 9 7 8 8 9 9 8 7 7 8 8 9 9 9 9 7 6 7 6 8 8 6 5 5 8 9 10 13 11 9 7 4 3 4 11 13 14 14 14 12 9 6 4 4 4 4 9 9 10 8 6 6 6
16 17 17 17 18 17 18 18 18 16 15 14 14 12 12 12 12 12 12 12 12 11 10 10 10 9 8 7 7 7 7 8 7 7 7 8 9 7 7 7 8 9 10 10 10 9 8 7 7 6 8 9 8 7 7 7 8 9 9 6 4 4 3 3 4 5 7 7 9 9 7 7 7 7 5 4 5 7 7 7 7 7 7 7 6
14 15 16 17 17 17 18 17 15 14 13 14 13 12 11 11 11 11 11 11 12 12 13 12 12 10 8 7 6 7 8 8 7 7 7 8 9 8 8 8 9 9 9 9 9 8 7 7 8 7 7 8 8 9 9 10 10 9 7 6 6 6 7 7 8 7 6 9 8 9 10 7 7 6 6 6 7 7 7 6 6 6 6 7 8
14 14 14 14 15 17 17 17 15 14 14 13 14 13 13 12 11 11 11 11 10 11 11 13 12 11 10 8 7 8 7 7 7 7 9 8 4 2 6 5 9 6 5 2 4 5 5 5 7 8 8 7 7 10 9 6 6 8 9 9 8 8 7 8 5 9 8 9 8 8 5 6 6 5 5 6 6 5 6 7 7 7 6 6 7
13 14 16 16 16 16 16 16 14 13 13 13 13 12 12 13 12 11 11 11 11 10 11 11 10 9 10 9 7 8 8 8 8 8 7 7 10 13 10 4 6 6 9 10 11 4 2 4 7 5 3 6 7 6 12 14 13 11 7 4 3 4 7 7 5 2 7 7 5 4 5 5 4 4 5 6 6 6 6 7 7 7 6 7 8
15 15 16 16 15 15 16 15 13 12 12 12 11 10 10 11 10 10 10 11 10 9 9 9 9 9 10 10 9 9 8 8 7 9 8 8 7 9 14 14 10 8 10 12 11 10 12 10 6 8 8 13 11 14 14 14 14 11 11 10 10 11 12 10 6 4 3 4 4 5 5 5 6 6 6 5 6 7 7 6 6 5 6 7 7
Wind_Direction
190 192 195 189 191 187 189 185 189 188 190 186 187 188 189 193 191 191 191 199 192 190 196 198 199 202 207 210 212 209 214 217 220 220 224 230 225 203 149 257 195 170 193 183 200 199 219 217 175 194 170 184 203 234 358 15 29 303 292 266 284 278 280 252 217 273 304 271 188 246 117 217 185 206 280 216 222 297 102 353 26 12 45 18 62
192 189 193 191 191 188 188 188 187 189 189 189 189 190 189 193 195 194 188 194 198 195 195 199 199 203 200 207 213 211 206 213 215 217 227 215 209 219 171 206 186 186 191 207 195 191 198 184 187 156 180 180 163 99 28 318 14 275 325 283 227 284 273 286 27 307 263 255 305 277 172 168 331 243 236 19 295 47 248 123 88 46 28 12 1
198 190 190 194 191 191 188 190 190 193 189 191 189 190 190 194 195 194 193 191 195 197 195 199 202 206 208 209 218 219 211 217 232 232 226 226 195 205 204 188 182 190 195 203 204 200 201 184 165 164 186 131 179 188 173 215 238 293 241 278 310 199 234 203 229 283 296 40 342 323 263 214 162 284 267 175 259 114 269 75 4 46 39 16 3
203 194 191 194 192 193 188 191 191 192 190 190 191 191 191 193 195 194 194 192 193 195 199 200 201 203 210 217 218 231 223 215 215 214 224 222 209 209 201 187 197 204 189 189 185 187 186 186 165 159 162 135 150 188 197 236 220 211 235 213 248 284 202 163 169 93 322 327 273 252 248 278 159 238 182 208 247 344 23 22 60 50 69 24 10
204 200 193 194 194 195 190 190 191 193 192 191 193 191 193 192 193 193 193 194 193 193 197 200 197 203 206 211 227 221 227 228 221 222 224 223 226 214 213 204 200 204 190 184 192 185 178 179 162 165 158 158 172 181 199 230 204 209 183 224 236 285 301 120 151 205 132 308 317 283 275 232 338 165 128 101 313 239 145 111 106 234 73 42 4
204 205 197 195 196 196 193 190 194 194 194 193 194 194 192 190 190 191 193 195 196 195 194 197 197 197 198 205 208 215 218 218 217 217 214 214 221 214 198 199 198 199 189 189 186 170 175 172 172 169 167 171 186 240 213 202 219 248 161 239 197 202 309 317 253 143 179 28 293 248 144 332 318 18 274 238 278 282 153 211 345 103 100 139 280
201 206 202 198 196 197 196 193 195 196 194 194 193 194 192 190 189 190 193 194 196 195 193 195 197 198 199 205 212 212 215 216 217 223 219 215 213 210 184 180 184 194 188 187 182 168 168 175 178 188 178 182 182 184 208 227 198 199 167 202 351 80 263 269 287 215 111 345 205 301 56 307 10 323 354 283 183 297 331 293 171 133 11 244 175
201 201 203 203 197 198 197 194 195 197 193 193 193 193 190 190 188 189 191 194 194 192 193 192 196 194 198 204 209 215 216 217 210 213 216 213 216 207 192 172 168 198 187 167 173 171 176 178 176 190 195 222 196 190 223 246 65 124 153 79 127 179 256 294 305 359 277 168 80 205 163 71 354 339 7 334 289 253 172 230 264 98 135 159 345
202 198 201 201 201 197 198 196 195 197 194 193 193 191 189 189 188 188 191 193 192 193 191 191 193 193 196 199 207 213 216 218 210 206 208 198 212 193 193 186 170 179 193 164 174 178 181 181 179 192 196 225 191 215 207 201 187 184 158 137 182 171 200 268 271 312 308 95 131 117 360 264 208 205 140 253 319 332 280 227 356 12 265 233 153
201 201 198 200 202 199 196 196 195 197 196 192 192 191 189 187 189 188 190 192 193 191 192 190 192 192 197 201 205 207 209 215 215 201 198 191 200 186 188 184 183 179 179 184 167 192 185 183 188 195 215 227 213 222 207 206 160 186 193 201 175 191 160 208 220 236 285 350 55 135 198 336 12 254 225 196 161 288 294 306 259 254 260 68 47
199 200 196 198 200 199 194 196 195 195 196 191 191 191 189 188 189 189 190 191 192 192 192 193 191 193 198 201 204 206 204 205 202 207 196 188 195 193 186 183 189 179 190 176 190 190 194 188 201 208 215 199 208 243 197 212 185 192 197 187 184 218 170 195 236 215 248 306 251 232 250 237 355 334 348 355 341 280 278 288 304 354 349 341 309
204 198 197 194 195 198 196 194 193 193 195 193 192 191 191 189 188 190 190 192 192 192 193 197 195 195 200 201 204 205 204 203 202 204 198 197 197 193 184 181 184 183 191 190 198 191 183 199 221 220 168 201 186 212 218 201 253 158 182 169 197 196 187 201 229 210 236 190 262 195 197 251 156 205 256 198 215 299 332 322 317 312 311 299 322
203 198 197 191 193 195 196 191 190 191 194 194 193 191 190 189 189 189 191 193 193 192 194 197 197 197 198 202 203 202 205 207 206 206 200 200 192 193 188 185 176 185 191 207 196 198 190 196 207 206 174 198 197 192 208 197 257 251 165 188 198 185 198 201 206 216 215 257 250 234 279 314 310 246 283 305 319 331 295 288 293 304 294 288 293
204 203 197 192 191 194 194 191 190 190 193 193 193 192 188 190 189 190 191 191 192 194 195 197 199 198 198 200 201 199 204 208 210 208 203 198 194 197 194 187 184 189 193 203 199 187 183 191 193 193 188 184 193 191 191 188 199 229 182 204 195 199 230 210 237 247 248 218 229 294 265 229 236 234 241 216 234 239 227 235 265 288 290 291 280
220 213 201 195 191 191 191 190 190 191 191 193 193 192 187 189 188 189 190 191 192 193 194 197 198 198 197 198 199 198 203 204 209 209 208 202 201 198 199 195 192 195 200 193 210 196 194 182 183 191 186 181 186 184 193 189 185 204 213 200 247 183 209 237 239 249 249 245 269 267 278 292 305 331 303 305 324 326 329 326 311 296 292 291 292
207 211 206 199 192 189 191 190 190 190 190 192 191 188 189 188 187 188 189 189 190 191 193 195 197 196 198 197 198 198 199 203 204 206 207 206 200 201 199 205 201 198 200 194 200 201 192 191 185 193 181 181 180 187 189 187 187 195 204 212 223 228 211 222 241 251 248 238 264 279 289 297 318 308 309 295 293 299 290 287 282 272 287 295 308
212 212 204 199 193 190 191 190 190 190 190 191 187 187 187 185 186 187 188 188 190 190 191 192 194 197 198 198 197 198 198 201 204 203 204 203 200 199 200 200 202 201 197 186 190 191 192 193 190 190 183 181 179 183 188 194 183 198 203 214 225 242 204 223 242 236 259 275 247 224 233 253 273 272 275 275 279 283 277 279 278 280 286 285 294
213 208 200 198 195 192 191 191 191 190 189 188 185 185 185 185 185 184 186 188 188 187 189 189 191 196 197 196 197 198 198 201 202 200 200 200 197 196 201 200 201 199 196 179 183 186 187 188 186 193 183 186 185 180 184 193 196 203 212 213 219 234 243 223 225 251 256 257 267 282 280 263 257 255 259 278 287 283 283 282 288 284 266 282 294
209 205 199 197 196 194 193 194 193 190 186 186 184 182 184 185 185 186 187 189 187 187 187 188 190 194 197 195 195 196 198 198 199 198 195 198 198 194 201 197 195 190 185 174 176 178 180 180 188 190 184 189 190 184 181 191 192 203 211 214 222 227 232 236 236 234 240 240 259 274 272 257 260 269 281 283 282 279 268 271 288 296 299 295 302
203 200 198 198 198 196 195 194 191 188 186 185 184 184 186 186 184 188 188 188 189 189 185 187 190 195 195 192 193 195 195 196 195 193 196 198 199 193 198 200 191 185 185 174 177 180 181 180 184 187 186 188 190 191 186 188 190 196 208 215 215 207 217 229 238 241 240 233 242 246 244 253 258 259 272 282 278 263 262 271 285 301 296 286 291
209 203 198 198 198 198 197 196 193 189 186 186 185 186 187 187 187 189 189 189 191 190 187 189 191 195 193 190 191 193 194 194 193 193 194 197 196 196 192 200 184 186 176 177 179 182 182 185 187 187 186 187 187 191 188 184 185 185 206 224 236 222 212 221 224 242 250 262 250 247 251 259 268 270 263 266 270 267 254 247 249 259 274 279 280
207 207 207 204 199 198 196 196 195 191 189 189 186 187 189 191 191 192 193 194 196 191 190 187 191 193 193 191 191 191 192 191 192 190 192 193 195 194 187 189 181 183 181 179 180 184 185 186 190 186 191 193 192 189 188 185 185 189 200 209 217 217 225 228 234 228 238 243 241 241 245 249 251 254 249 250 248 256 266 282 276 268 272 274 255
202 207 212 208 199 200 195 193 196 194 189 189 188 190 191 192 192 193 196 197 198 194 190 187 190 191 192 190 190 190 189 190 192 192 194 195 192 193 186 188 183 185 184 181 182 186 184 185 190 188 192 193 198 193 191 186 182 191 200 211 209 204 208 222 221 227 232 232 236 240 246 248 243 246 246 245 248 260 271 271 272 269 267 272 274
194 199 214 214 203 194 197 192 192 193 187 190 190 189 191 192 194 194 198 198 197 195 189 188 190 191 189 188 190 189 190 190 191 192 195 196 194 191 190 189 187 188 186 187 184 182 181 184 189 189 187 196 195 196 195 191 185 189 198 209 210 203 211 215 227 230 224 223 232 240 246 255 262 258 251 245 245 253 264 263 268 271 265 268 275
191 202 211 206 200 190 194 190 185 192 191 190 191 188 190 191 194 196 198 198 196 195 190 189 192 191 188 189 190 191 191 191 193 194 194 196 198 191 191 192 191 196 190 187 182 181 180 183 187 184 189 197 195 195 193 195 193 190 197 200 199 208 212 217 226 229 231 234 239 244 248 247 246 252 254 253 253 261 264 269 273 268 265 274 278
188 196 209 207 199 181 182 185 181 188 192 186 190 190 189 190 194 197 196 196 195 195 193 189 192 193 189 188 191 190 192 195 194 196 198 199 198 189 190 193 195 198 192 189 182 183 181 181 182 184 192 193 193 195 195 197 196 191 195 201 204 210 212 215 218 226 229 230 234 241 250 255 257 255 252 250 256 261 262 265 268 271 279 284 281
186 193 206 205 196 188 183 185 183 188 190 189 191 194 191 187 193 197 195 193 193 194 193 191 192 195 190 189 189 190 192 192 190 196 199 199 198 194 197 197 197 199 192 190 188 183 181 181 183 186 192 190 192 197 201 203 199 191 193 199 205 206 214 214 219 227 231 230 232 236 243 249 254 254 255 254 258 261 263 267 272 280 280 281 288
184 190 198 200 200 188 181 184 185 186 186 187 190 193 195 189 192 194 195 192 191 193 194 193 189 193 189 191 192 190 189 189 189 191 196 199 201 204 205 200 202 203 199 192 187 182 180 182 184 187 186 185 187 195 204 205 203 195 196 201 204 209 210 214 220 226 233 236 236 239 243 240 237 243 248 257 255 258 260 267 268 272 278 280 281
186 190 193 193 192 187 184 183 182 181 183 186 188 191 193 191 193 193 195 194 186 188 192 193 188 190 188 190 190 190 189 186 185 189 195 195 198 203 204 202 201 205 201 194 188 184 180 181 182 184 184 183 188 198 202 200 199 200 202 201 204 207 211 214 220 227 227 232 241 253 261 257 248 230 246 253 257 293 285 288 290 285 282 282 284
190 191 191 193 193 185 182 181 182 183 183 185 186 187 189 187 189 191 195 192 181 185 187 190 189 187 185 186 186 183 181 180 185 194 197 191 195 199 202 204 199 201 199 191 189 189 186 181 181 183 185 186 192 197 203 203 203 201 200 202 201 205 210 214 219 227 237 240 240 240 244 249 260 278 147 153 197 246 260 273 279 281 282 279 275
202 178 191 188 191 189 183 182 185 186 185 184 183 185 185 187 188 189 191 190 184 179 183 185 185 184 182 179 177 178 180 182 187 192 195 194 197 200 197 182 182 190 194 189 192 191 187 180 179 179 184 189 193 200 197 200 207 212 205 204 203 201 204 213 220 225 239 244 246 242 247 244 72 64 321 312 273 256 259 259 258 257 261 269 271
218 223 192 185 186 190 190 187 187 187 185 183 181 182 184 187 185 188 187 187 182 177 181 181 181 178 177 173 173 173 175 179 180 186 192 192 193 192 187 181 185 191 192 191 193 188 187 180 183 186 189 193 196 196 187 194 206 212 218 212 205 205 202 206 215 224 230 238 243 239 244 174 152 152 204 276 276 266 259 256 263 260 253 248 245
215 201 183 191 191 193 195 192 186 186 185 186 180 179 182 184 182 183 182 185 182 177 174 178 177 175 172 170 169 170 173 176 181 184 187 189 190 180 180 181 187 189 191 187 184 184 183 183 184 189 193 194 202 187 186 193 202 206 215 232 220 215 212 208 216 221 224 234 243 38 44 110 134 155 206 240 263 264 247 232 246 260 262 254 245
245 214 184 194 194 199 198 194 188 187 186 181 181 180 178 180 177 178 181 184 176 170 173 176 175 174 168 168 170 174 176 177 178 180 188 194 196 192 189 189 190 190 191 187 187 185 181 182 184 185 189 196 206 178 185 194 198 200 206 212 233 233 225 221 221 228 231 221 108 152 313 278 220 219 253 257 259 252 239 254 259 256 260 250 240
250 234 207 187 193 198 193 191 190 184 180 179 180 180 176 179 177 178 177 176 171 171 171 172 174 173 170 169 174 178 179 183 180 188 189 199 202 201 195 190 193 196 192 187 189 188 185 183 181 183 188 200 209 179 184 190 194 196 200 202 222 229 229 223 221 224 227 223 134 166 205 235 239 243 245 234 251 250 195 219 252 286 285 277 266
241 238 117 205 197 195 192 189 187 178 176 180 178 177 175 177 175 172 174 173 171 171 169 171 174 175 174 174 175 178 178 184 195 194 194 203 211 209 205 201 200 196 193 191 193 194 186 187 187 187 192 196 211 170 183 183 187 195 190 199 216 222 222 221 214 216 216 213 163 178 196 218 222 232 214 228 248 249 222 201 239 249 250 257 269
231 190 208 208 196 194 189 177 183 182 174 179 175 173 173 171 170 169 169 171 172 171 171 170 172 175 175 173 174 174 179 181 189 190 195 199 201 214 217 215 209 201 193 194 193 193 192 190 188 189 197 200 212 169 175 179 185 187 177 205 211 212 212 209 206 201 205 175 189 188 191 198 220 232 224 218 203 209 240 250 254 255 262 269 268
229 185 187 190 189 188 175 179 180 184 172 171 171 168 168 167 166 164 167 169 170 173 172 170 172 172 172 171 173 174 175 180 180 190 186 196 197 203 213 209 216 215 208 203 200 197 191 190 190 192 194 197 212 166 173 175 176 175 186 201 201 204 202 188 183 181 168 177 191 195 186 204 205 234 170 177 164 184 227 244 256 265 270 270 273
214 182 179 179 176 180 172 178 178 180 170 167 170 164 163 164 165 165 167 167 170 170 171 169 170 168 168 168 168 168 170 174 180 186 194 188 191 196 204 202 211 219 224 218 218 215 202 194 196 201 194 198 212 168 171 169 173 180 190 209 198 201 192 189 178 176 181 189 181 173 190 208 227 160 154 160 175 198 222 245 262 269 269 271 275
191 183 173 168 162 169 168 178 178 177 169 165 166 161 159 159 162 163 165 166 167 165 167 166 164 161 160 162 163 162 167 168 176 183 189 187 185 197 200 205 210 211 220 221 213 218 198 181 179 192 204 206 214 179 173 174 179 184 195 202 198 202 203 180 179 175 169 150 157 196 197 216 187 156 160 163 178 205 221 239 259 265 269 279 329
182 172 157 157 165 169 173 177 173 164 164 162 162 155 151 156 156 159 159 158 157 156 159 157 157 156 155 156 154 158 162 165 170 178 184 187 187 194 199 197 205 206 211 209 206 225 218 207 205 208 222 230 227 236 176 173 180 187 194 203 192 206 199 197 157 141 153 173 190 210 226 185 163 154 156 165 175 186 213 255 247 270 336 352 316
174 139 149 156 162 162 168 166 156 161 163 158 148 141 143 145 148 145 149 146 143 145 148 148 148 147 145 148 149 155 163 163 170 179 179 178 183 192 194 191 194 192 193 191 211 225 227 220 217 217 225 229 235 234 150 179 178 166 156 224 231 195 189 167 159 176 189 197 205 182 207 146 151 155 154 162 167 167 185 235 241 76 59 342 322
124 137 147 153 150 159 168 158 159 159 151 142 140 134 133 134 134 130 125 127 132 135 137 139 140 140 143 147 146 148 157 159 170 173 182 182 173 183 170 160 165 170 191 201 209 216 219 219 209 203 195 192 97 116 143 143 137 163 194 195 220 165 151 179 181 180 183 191 212 215 127 141 145 144 150 158 164 153 175 240 257 20 5 317 284
150 146 153 156 151 149 139 145 142 134 138 136 127 123 121 116 113 113 118 120 123 126 129 131 133 132 136 142 142 153 156 162 165 175 178 177 180 177 161 155 153 183 198 201 204 209 217 216 216 195 188 145 128 109 125 139 160 176 197 199 199 146 158 181 189 177 185 193 201 161 133 133 130 139 146 145 139 166 279 38 357 327 284 278 281
151 142 138 139 139 140 137 132 137 134 127 119 115 114 112 111 114 118 119 123 122 124 124 128 133 137 146 147 148 156 159 169 173 176 158 166 168 167 160 165 157 186 200 207 207 204 205 210 209 197 181 167 153 138 138 154 149 163 169 177 143 138 170 155 180 202 165 85 100 110 117 117 123 124 123 143 191 215 231 250 260 265 264 273 270
129 130 133 132 130 126 121 115 107 104 106 110 114 116 117 121 126 126 128 127 128 128 129 126 123 124 144 157 155 155 157 164 159 156 161 163 168 171 167 162 178 189 202 211 216 213 218 215 200 190 178 166 148 136 121 117 136 158 185 189 165 157 159 200 298 114 120 127 118 117 117 121 131 138 177 192 230 194 194 213 233 235 256 261 256
114 114 116 116 113 107 104 104 102 101 104 105 105 104 110 121 127 133 134 132 129 126 125 130 138 148 156 164 157 154 156 152 144 142 157 166 158 152 149 176 191 201 205 212 210 207 207 206 189 165 157 155 163 156 150 154 170 174 187 171 147 153 141 143 151 144 133 118 129 129 128 122 105 158 215 322 329 131 174 199 222 220 238 259 246
102 107 106 107 107 106 102 99 98 100 101 105 109 111 114 118 124 125 125 128 134 139 143 145 144 142 150 155 159 129 154 153 150 163 166 162 159 166 165 180 196 207 216 212 220 222 210 187 181 161 165 169 173 174 175 179 182 179 173 163 173 167 173 191 193 177 183 145 138 126 133 159 152 173 182 205 216 213 226 224 230 256 245 240 270
86 90 95 98 102 103 104 105 109 114 114 116 118 122 128 133 134 131 136 134 132 142 141 138 138 141 137 140 148 162 166 143 135 77 50 34 20 135 179 134 45 26 13 345 248 199 184 168 154 154 165 178 185 189 195 170 149 156 166 171 177 180 184 191 228 177 171 150 156 165 176 173 194 216 250 268 277 265 232 233 249 239 247 254 243
79 82 84 85 88 93 94 94 95 98 103 107 115 126 135 135 128 132 133 130 139 142 142 140 142 142 135 144 158 169 147 152 150 132 107 86 61 57 29 57 87 45 49 41 36 63 65 165 142 158 168 176 198 189 104 109 120 119 111 88 109 164 191 182 106 118 182 178 190 211 223 226 247 253 254 264 265 258 266 266 239 237 260 273 281
81 82 81 82 83 85 88 90 93 95 99 103 105 106 103 110 120 126 132 137 147 147 145 137 140 142 140 152 160 157 154 164 153 162 153 133 124 67 51 48 63 58 47 46 51 48 40 37 142 146 81 63 71 98 109 110 101 90 86 82 88 90 92 96 109 132 197 228 239 248 255 263 257 256 256 253 261 271 272 276 277 286 281 277 275